Orbital Elements at Epoch 2459200.5 (2020-Dec-17.0) TDB
Reference: JPL 19 (heliocentric ecliptic J2000)
Element | Value | Uncertainty (1-sigma) | Units |
e | .09803365078245076 | 4.2087e-08 | |
a | 3.116770169577799 | 2.2865e-08 | au |
q | 2.811221811204249 | 1.3631e-07 | au |
i | 9.790478260991847 | 5.9627e-06 | deg |
node | 177.8302551245211 | 2.4129e-05 | deg |
peri | 267.3754719090873 | 4.1423e-05 | deg |
M | 338.9523895210184 | 3.1338e-05 | deg |
tp | 2459318.004876892897 (2021-Apr-13.50487689) | 0.00017473 | TDB |
period | 2009.812739725782 5.50 | 2.2116e-05 6.055e-08 | d yr |
n | .1791211653127038 | 1.971e-09 | deg/d |
Q | 3.422318527951349 | 2.5106e-08 | au |
|
| | Orbit Determination Parameters
Additional Information
|